TUI2EM LGIR-EDDM

Flight info

Callsign TUI2EM
Flight time 2h 35m
Altitude 36000
Route EPALO M749 DIRMI UL613 YNN UL604 DIMIS/N0446F380 DCT RETRA DCT NIVES DCT GORPA DCT RASTA DCT REDBU Q112 NAPSA NAPSA1B
Aircraft B738/M-SDE2E3FGHIRWXY/LB1

Departure

Time 2026-05-05 14:55
Airport Heraklion International Nikos Kazantzakis Airport (LGIR)

Arrival

Time 2026-05-05 17:31
Airport Munich Airport (EDDM)
Time Latitude Longitude Altitude Speed Heading
2026-05-05 14:35 35.33871 25.17290 92 ft 0 kts 311°
2026-05-05 14:50 35.33871 25.17289 90 ft 0 kts 311°
2026-05-05 14:51 35.33888 25.17278 92 ft 6 kts 343°
2026-05-05 14:51 35.33923 25.17318 90 ft 10 kts 87°
2026-05-05 14:51 35.33918 25.17413 90 ft 12 kts 95°
2026-05-05 14:51 35.33911 25.17523 91 ft 14 kts 94°
2026-05-05 14:52 35.33901 25.17646 91 ft 16 kts 99°
2026-05-05 14:52 35.33891 25.17785 91 ft 17 kts 94°
2026-05-05 14:52 35.33882 25.17940 93 ft 19 kts 94°
2026-05-05 14:52 35.33870 25.18107 93 ft 20 kts 95°
2026-05-05 14:53 35.33859 25.18272 92 ft 20 kts 94°
2026-05-05 14:53 35.33848 25.18452 89 ft 22 kts 94°
2026-05-05 14:53 35.33834 25.18648 89 ft 24 kts 95°
2026-05-05 14:53 35.33822 25.18813 90 ft 13 kts 95°
2026-05-05 14:54 35.33824 25.18925 91 ft 13 kts 69°
2026-05-05 14:54 35.33866 25.18997 87 ft 8 kts 20°
2026-05-05 14:54 35.33906 25.18962 88 ft 6 kts 296°
2026-05-05 14:54 35.33911 25.18938 87 ft 0 kts 277°
2026-05-05 14:55 35.33911 25.18913 88 ft 21 kts 269°
2026-05-05 14:55 35.33952 25.18354 91 ft 108 kts 275°
2026-05-05 14:55 35.34036 25.17124 156 ft 175 kts 275°
2026-05-05 14:55 35.34140 25.15576 1024 ft 187 kts 271°
2026-05-05 14:56 35.34374 25.13911 1534 ft 213 kts 298°
2026-05-05 14:56 35.35521 25.12681 1895 ft 228 kts 329°
2026-05-05 14:56 35.36918 25.11789 2665 ft 227 kts 336°
2026-05-05 14:56 35.38440 25.11217 3399 ft 229 kts 343°
2026-05-05 14:57 35.39987 25.10748 4126 ft 230 kts 344°
2026-05-05 14:57 35.41556 25.10284 4772 ft 235 kts 345°
2026-05-05 14:57 35.43176 25.09801 5346 ft 247 kts 346°
2026-05-05 14:57 35.44862 25.09309 6052 ft 255 kts 348°
2026-05-05 14:58 35.46599 25.08809 6955 ft 256 kts 348°
2026-05-05 14:58 35.48335 25.08286 7779 ft 259 kts 346°
2026-05-05 14:58 35.50100 25.07742 8565 ft 263 kts 346°
2026-05-05 14:58 35.51888 25.07186 9394 ft 267 kts 345°
2026-05-05 14:59 35.53696 25.06621 10198 ft 270 kts 345°
2026-05-05 14:59 35.55564 25.06036 10598 ft 288 kts 345°
2026-05-05 14:59 35.57599 25.05398 10785 ft 312 kts 345°
2026-05-05 14:59 35.59731 25.04729 11190 ft 326 kts 345°
2026-05-05 15:00 35.61942 25.04035 11888 ft 330 kts 345°
2026-05-05 15:00 35.63447 25.03563 12420 ft 330 kts 345°
2026-05-05 15:00 35.66410 25.02633 13442 ft 334 kts 345°
2026-05-05 15:00 35.68675 25.01921 14125 ft 338 kts 344°
2026-05-05 15:01 35.70962 25.01202 14789 ft 341 kts 344°
2026-05-05 15:01 35.73241 25.00372 15447 ft 343 kts 339°
2026-05-05 15:01 35.75482 24.99339 16151 ft 344 kts 337°
2026-05-05 15:01 35.77712 24.98250 16814 ft 346 kts 337°
2026-05-05 15:02 35.79960 24.97150 17459 ft 349 kts 337°
2026-05-05 15:02 35.82230 24.96050 18105 ft 352 kts 337°
2026-05-05 15:02 35.84525 24.94952 18701 ft 354 kts 337°
2026-05-05 15:02 35.86834 24.93856 19264 ft 357 kts 337°
2026-05-05 15:03 35.89158 24.92758 19823 ft 359 kts 337°
2026-05-05 15:03 35.91497 24.91656 20384 ft 361 kts 337°
2026-05-05 15:03 35.93824 24.90559 20931 ft 363 kts 337°
2026-05-05 15:03 35.96224 24.89428 21476 ft 366 kts 337°
2026-05-05 15:04 35.98583 24.88315 21987 ft 368 kts 337°
2026-05-05 15:04 36.00989 24.87180 22512 ft 370 kts 337°
2026-05-05 15:04 36.03318 24.86079 23011 ft 373 kts 337°
2026-05-05 15:04 36.05685 24.84699 23515 ft 374 kts 329°
2026-05-05 15:05 36.09852 24.80882 24389 ft 376 kts 321°
2026-05-05 15:05 36.11888 24.78840 24836 ft 377 kts 321°
2026-05-05 15:05 36.13936 24.76788 25267 ft 379 kts 321°
2026-05-05 15:06 36.15988 24.74737 25681 ft 380 kts 321°
2026-05-05 15:06 36.18052 24.72680 26081 ft 382 kts 321°
2026-05-05 15:06 36.20126 24.70617 26474 ft 383 kts 321°
2026-05-05 15:06 36.22213 24.68542 26875 ft 384 kts 321°
2026-05-05 15:07 36.24297 24.66469 27260 ft 386 kts 322°
2026-05-05 15:07 36.26398 24.64379 27658 ft 387 kts 322°
2026-05-05 15:07 36.28501 24.62285 28027 ft 388 kts 322°
2026-05-05 15:07 36.30612 24.60182 28381 ft 390 kts 322°
2026-05-05 15:08 36.32731 24.58070 28728 ft 392 kts 322°
2026-05-05 15:08 36.34859 24.55947 29080 ft 393 kts 322°
2026-05-05 15:08 36.36973 24.53835 29413 ft 394 kts 322°
2026-05-05 15:08 36.39114 24.51696 29739 ft 396 kts 322°
2026-05-05 15:09 36.41262 24.49547 30084 ft 397 kts 322°
2026-05-05 15:09 36.43405 24.47403 30501 ft 394 kts 322°
2026-05-05 15:09 36.45539 24.45266 30900 ft 392 kts 322°
2026-05-05 15:09 36.47668 24.43133 31225 ft 392 kts 321°
2026-05-05 15:10 36.49792 24.41001 31545 ft 393 kts 321°
2026-05-05 15:10 36.51914 24.38869 31901 ft 392 kts 321°
2026-05-05 15:10 36.54027 24.36744 32287 ft 389 kts 321°
2026-05-05 15:10 36.56131 24.34627 32709 ft 387 kts 321°
2026-05-05 15:11 36.58196 24.32547 33024 ft 387 kts 321°
2026-05-05 15:11 36.60292 24.30433 33293 ft 388 kts 321°
2026-05-05 15:11 36.62389 24.28318 33618 ft 388 kts 321°
2026-05-05 15:11 36.64480 24.26208 33979 ft 386 kts 321°
2026-05-05 15:12 36.66569 24.24098 34261 ft 386 kts 320°
2026-05-05 15:12 36.68654 24.21990 34490 ft 386 kts 320°
2026-05-05 15:12 36.70741 24.19879 34734 ft 386 kts 320°
2026-05-05 15:12 36.72827 24.17767 34983 ft 386 kts 320°
2026-05-05 15:13 36.74917 24.15650 35201 ft 387 kts 320°
2026-05-05 15:13 36.77010 24.13528 35359 ft 389 kts 320°
2026-05-05 15:13 36.79090 24.11418 35518 ft 390 kts 320°
2026-05-05 15:13 36.81202 24.09273 35742 ft 390 kts 320°
2026-05-05 15:14 36.83309 24.07133 36057 ft 389 kts 320°
2026-05-05 15:14 36.87540 24.02829 36068 ft 393 kts 320°
2026-05-05 15:15 36.91775 23.98516 36054 ft 389 kts 320°
2026-05-05 15:15 36.95920 23.94295 36065 ft 385 kts 320°
2026-05-05 15:16 37.00069 23.90064 36059 ft 384 kts 320°
2026-05-05 15:16 37.04208 23.85836 36061 ft 384 kts 320°
2026-05-05 15:17 37.08347 23.81602 36058 ft 384 kts 320°
2026-05-05 15:17 37.12489 23.77358 36067 ft 385 kts 320°
2026-05-05 15:18 37.16608 23.73131 36041 ft 386 kts 320°
2026-05-05 15:18 37.20767 23.68857 36054 ft 387 kts 320°
2026-05-05 15:19 37.24936 23.64566 36050 ft 388 kts 320°
2026-05-05 15:19 37.29118 23.60256 36050 ft 389 kts 320°
2026-05-05 15:20 37.33304 23.55935 36049 ft 390 kts 320°
2026-05-05 15:20 37.37503 23.51595 36050 ft 391 kts 320°
2026-05-05 15:21 37.41682 23.47268 36049 ft 391 kts 320°
2026-05-05 15:21 37.45876 23.42920 36037 ft 390 kts 320°
2026-05-05 15:22 37.50061 23.38575 36030 ft 389 kts 320°
2026-05-05 15:22 37.53524 23.34973 36039 ft 388 kts 320°
2026-05-05 15:23 37.57685 23.30641 36036 ft 387 kts 320°
2026-05-05 15:23 37.61834 23.26314 36038 ft 387 kts 320°
2026-05-05 15:24 37.66025 23.21936 36051 ft 395 kts 320°
2026-05-05 15:24 37.70285 23.17480 36049 ft 403 kts 320°
2026-05-05 15:25 37.74636 23.12922 36035 ft 408 kts 320°
2026-05-05 15:25 37.79015 23.08327 36037 ft 408 kts 319°
2026-05-05 15:26 37.83383 23.03736 36046 ft 408 kts 319°
2026-05-05 15:26 37.87752 22.99136 36042 ft 407 kts 319°
2026-05-05 15:27 37.92079 22.94575 36046 ft 406 kts 319°
2026-05-05 15:27 37.96329 22.89873 36060 ft 405 kts 317°
2026-05-05 15:28 38.00450 22.85031 36044 ft 403 kts 317°
2026-05-05 15:28 38.04570 22.80217 36049 ft 401 kts 317°
2026-05-05 15:29 38.08683 22.75441 36038 ft 400 kts 317°
2026-05-05 15:29 38.12780 22.70680 36049 ft 399 kts 317°
2026-05-05 15:30 38.16852 22.65945 36056 ft 398 kts 317°
2026-05-05 15:30 38.20936 22.61189 36054 ft 398 kts 317°
2026-05-05 15:31 38.25019 22.56424 36075 ft 398 kts 317°
2026-05-05 15:31 38.29064 22.51697 36059 ft 397 kts 317°
2026-05-05 15:32 38.33131 22.46937 36056 ft 396 kts 317°
2026-05-05 15:32 38.37183 22.42186 36057 ft 395 kts 317°
2026-05-05 15:33 38.41228 22.37435 36060 ft 394 kts 317°
2026-05-05 15:33 38.45259 22.32693 36062 ft 394 kts 317°
2026-05-05 15:34 38.49283 22.27952 36061 ft 393 kts 317°
2026-05-05 15:34 38.53278 22.23238 36067 ft 394 kts 317°
2026-05-05 15:35 38.57305 22.18479 36074 ft 395 kts 317°
2026-05-05 15:35 38.61328 22.13717 36084 ft 394 kts 317°
2026-05-05 15:36 38.65359 22.08941 36070 ft 396 kts 317°
2026-05-05 15:36 38.69412 22.04129 36083 ft 398 kts 317°
2026-05-05 15:37 38.73477 21.99294 36069 ft 399 kts 316°
2026-05-05 15:37 38.77514 21.94485 36069 ft 399 kts 317°
2026-05-05 15:38 38.81583 21.89629 36089 ft 399 kts 316°
2026-05-05 15:38 38.85647 21.84771 36079 ft 398 kts 316°
2026-05-05 15:39 38.89703 21.79916 36093 ft 398 kts 316°
2026-05-05 15:39 38.93749 21.75064 36084 ft 398 kts 316°
2026-05-05 15:40 38.97774 21.70229 36078 ft 399 kts 316°
2026-05-05 15:40 39.01824 21.65357 36083 ft 398 kts 316°
2026-05-05 15:41 39.05872 21.60479 36086 ft 399 kts 316°
2026-05-05 15:41 39.09925 21.55589 36091 ft 399 kts 316°
2026-05-05 15:42 39.13976 21.50689 36089 ft 399 kts 316°
2026-05-05 15:42 39.18027 21.45783 36087 ft 398 kts 316°
2026-05-05 15:43 39.22066 21.40884 36078 ft 398 kts 316°
2026-05-05 15:43 39.26070 21.36019 36088 ft 398 kts 316°
2026-05-05 15:44 39.30093 21.31122 36103 ft 397 kts 316°
2026-05-05 15:44 39.34117 21.26215 36104 ft 398 kts 316°
2026-05-05 15:45 39.38137 21.21307 36114 ft 398 kts 316°
2026-05-05 15:45 39.42148 21.16401 36108 ft 396 kts 315°
2026-05-05 15:46 39.46155 21.11491 36097 ft 398 kts 315°
2026-05-05 15:46 39.50175 21.06556 36107 ft 399 kts 315°
2026-05-05 15:47 39.54200 21.01607 36100 ft 399 kts 315°
2026-05-05 15:47 39.58202 20.96621 36105 ft 400 kts 315°
2026-05-05 15:48 39.62263 20.91662 36101 ft 401 kts 315°
2026-05-05 15:48 39.66289 20.86700 36112 ft 402 kts 315°
2026-05-05 15:49 39.70567 20.82015 36107 ft 403 kts 324°
2026-05-05 15:49 39.75588 20.78663 36105 ft 407 kts 332°
2026-05-05 15:50 39.80750 20.75597 36101 ft 408 kts 331°
2026-05-05 15:50 39.85911 20.72493 36108 ft 409 kts 331°
2026-05-05 15:51 39.91072 20.69369 36116 ft 409 kts 331°
2026-05-05 15:51 39.96228 20.66240 36101 ft 408 kts 331°
2026-05-05 15:52 40.01369 20.63115 36097 ft 406 kts 331°
2026-05-05 15:52 40.06485 20.59999 36108 ft 405 kts 331°
2026-05-05 15:53 40.11600 20.57006 36106 ft 405 kts 333°
2026-05-05 15:53 40.16783 20.54106 36098 ft 404 kts 333°
2026-05-05 15:54 40.21948 20.51209 36096 ft 403 kts 333°
2026-05-05 15:54 40.27105 20.48294 36110 ft 403 kts 333°
2026-05-05 15:55 40.32240 20.45379 36103 ft 403 kts 332°
2026-05-05 15:55 40.37394 20.42446 36109 ft 404 kts 332°
2026-05-05 15:56 40.42553 20.39504 36100 ft 404 kts 332°
2026-05-05 15:56 40.47716 20.36555 36100 ft 405 kts 332°
2026-05-05 15:57 40.52887 20.33598 36107 ft 405 kts 332°
2026-05-05 15:57 40.58019 20.30660 36096 ft 404 kts 332°
2026-05-05 15:58 40.63173 20.27697 36101 ft 403 kts 332°
2026-05-05 15:58 40.68321 20.24733 36103 ft 403 kts 332°
2026-05-05 15:59 40.73467 20.21766 36109 ft 404 kts 332°
2026-05-05 15:59 40.78618 20.18785 36107 ft 404 kts 332°
2026-05-05 16:00 40.83731 20.15838 36104 ft 403 kts 332°
2026-05-05 16:00 40.88869 20.12874 36100 ft 403 kts 332°
2026-05-05 16:01 40.94022 20.09887 36100 ft 405 kts 332°
2026-05-05 16:01 40.99201 20.06878 36113 ft 406 kts 332°
2026-05-05 16:02 41.04393 20.03856 36107 ft 408 kts 332°
2026-05-05 16:02 41.09583 20.00832 36098 ft 408 kts 332°
2026-05-05 16:03 41.14784 19.97796 36115 ft 407 kts 332°
2026-05-05 16:03 41.19941 19.94779 36111 ft 407 kts 332°
2026-05-05 16:04 41.25130 19.91739 36096 ft 408 kts 332°
2026-05-05 16:04 41.30330 19.88688 36104 ft 408 kts 331°
2026-05-05 16:05 41.35533 19.85628 36104 ft 409 kts 331°
2026-05-05 16:05 41.40747 19.82558 36107 ft 409 kts 331°
2026-05-05 16:06 41.45928 19.79501 36099 ft 410 kts 331°
2026-05-05 16:06 41.51157 19.76410 36105 ft 411 kts 331°
2026-05-05 16:07 41.56386 19.73314 36108 ft 412 kts 331°
2026-05-05 16:07 41.61638 19.70198 36106 ft 413 kts 331°
2026-05-05 16:08 41.66897 19.67074 36102 ft 414 kts 331°
2026-05-05 16:08 41.72159 19.63942 36114 ft 414 kts 331°
2026-05-05 16:09 41.77399 19.60817 36106 ft 415 kts 331°
2026-05-05 16:09 41.82677 19.57663 36107 ft 415 kts 331°
2026-05-05 16:10 41.87965 19.54498 36100 ft 416 kts 331°
2026-05-05 16:10 41.93254 19.51327 36097 ft 416 kts 331°
2026-05-05 16:11 41.98516 19.48165 36098 ft 417 kts 331°
2026-05-05 16:12 42.08286 19.42280 36088 ft 419 kts 331°
2026-05-05 16:13 42.21582 19.34210 36074 ft 420 kts 328°
2026-05-05 16:13 42.26362 19.29809 36092 ft 415 kts 318°
2026-05-05 16:14 42.35397 19.19996 36070 ft 417 kts 318°
2026-05-05 16:15 42.44452 19.10215 36093 ft 418 kts 318°
2026-05-05 16:16 42.53574 19.00340 36083 ft 419 kts 318°
2026-05-05 16:17 42.60416 18.92908 36090 ft 420 kts 318°
2026-05-05 16:18 42.67260 18.85452 36096 ft 421 kts 318°
2026-05-05 16:19 42.74083 18.77996 36089 ft 422 kts 318°
2026-05-05 16:19 42.80956 18.70465 36087 ft 422 kts 317°
2026-05-05 16:20 42.90085 18.60426 36100 ft 423 kts 318°
2026-05-05 16:22 43.01448 18.47876 36094 ft 424 kts 317°
2026-05-05 16:23 43.10596 18.37729 36088 ft 424 kts 317°
2026-05-05 16:23 43.17488 18.30055 36086 ft 427 kts 317°
2026-05-05 16:24 43.22093 18.24916 36097 ft 427 kts 317°
2026-05-05 16:25 43.29009 18.17178 36092 ft 427 kts 317°
2026-05-05 16:25 43.35890 18.09456 36093 ft 427 kts 317°
2026-05-05 16:26 43.45087 17.99099 36092 ft 427 kts 317°
2026-05-05 16:27 43.49683 17.93908 36085 ft 427 kts 317°
2026-05-05 16:27 43.54275 17.88709 36095 ft 427 kts 317°
2026-05-05 16:28 43.58867 17.83500 36092 ft 428 kts 317°
2026-05-05 16:28 43.63466 17.78274 36075 ft 429 kts 317°
2026-05-05 16:29 43.68069 17.73031 36077 ft 429 kts 317°
2026-05-05 16:29 43.72649 17.67803 36086 ft 429 kts 317°
2026-05-05 16:30 43.77253 17.62539 36061 ft 429 kts 317°
2026-05-05 16:30 43.81853 17.57268 36069 ft 429 kts 317°
2026-05-05 16:31 43.86455 17.51983 36063 ft 429 kts 317°
2026-05-05 16:31 43.91048 17.46697 36061 ft 429 kts 317°
2026-05-05 16:32 43.95640 17.41403 36058 ft 429 kts 317°
2026-05-05 16:32 44.00208 17.36126 36059 ft 430 kts 317°
2026-05-05 16:33 44.04804 17.30803 36055 ft 429 kts 317°
2026-05-05 16:33 44.09395 17.25473 36043 ft 430 kts 317°
2026-05-05 16:34 44.13971 17.20152 36048 ft 430 kts 317°
2026-05-05 16:34 44.18564 17.14802 36037 ft 430 kts 317°
2026-05-05 16:35 44.23150 17.09447 36031 ft 430 kts 317°
2026-05-05 16:35 44.27734 17.04084 36030 ft 430 kts 316°
2026-05-05 16:36 44.32316 16.98711 36032 ft 431 kts 317°
2026-05-05 16:36 44.36912 16.93308 36038 ft 432 kts 316°
2026-05-05 16:37 44.41529 16.87871 36033 ft 434 kts 317°
2026-05-05 16:37 44.46118 16.82457 36011 ft 435 kts 316°
2026-05-05 16:38 44.50747 16.76983 36011 ft 435 kts 316°
2026-05-05 16:38 44.55372 16.71502 36006 ft 436 kts 316°
2026-05-05 16:39 44.60003 16.66001 36006 ft 436 kts 316°
2026-05-05 16:39 44.64633 16.60490 35997 ft 436 kts 316°
2026-05-05 16:40 44.69268 16.54962 35993 ft 437 kts 316°
2026-05-05 16:40 44.73869 16.49461 35991 ft 436 kts 316°
2026-05-05 16:41 44.78495 16.43919 36008 ft 437 kts 316°
2026-05-05 16:41 44.83119 16.38367 35996 ft 437 kts 316°
2026-05-05 16:42 44.87746 16.32798 35996 ft 437 kts 316°
2026-05-05 16:42 44.92370 16.27222 35988 ft 437 kts 316°
2026-05-05 16:43 44.96986 16.21643 35994 ft 437 kts 316°
2026-05-05 16:43 45.01605 16.16047 36010 ft 437 kts 316°
2026-05-05 16:44 45.06195 16.10475 35996 ft 438 kts 316°
2026-05-05 16:44 45.10822 16.04845 35991 ft 438 kts 316°
2026-05-05 16:45 45.15445 15.99207 35992 ft 439 kts 316°
2026-05-05 16:45 45.20069 15.93557 35984 ft 439 kts 316°
2026-05-05 16:46 45.24815 15.88082 35993 ft 441 kts 321°
2026-05-05 16:46 45.29866 15.83081 35996 ft 443 kts 322°
2026-05-05 16:47 45.34917 15.78146 35980 ft 443 kts 322°
2026-05-05 16:47 45.39975 15.73119 35984 ft 443 kts 321°
2026-05-05 16:48 45.45006 15.68063 35971 ft 443 kts 321°
2026-05-05 16:48 45.50047 15.62978 35986 ft 444 kts 321°
2026-05-05 16:49 45.55092 15.57878 35974 ft 444 kts 321°
2026-05-05 16:49 45.60137 15.52769 35977 ft 445 kts 321°
2026-05-05 16:50 45.65151 15.47681 35965 ft 445 kts 321°
2026-05-05 16:50 45.70201 15.42543 35955 ft 445 kts 321°
2026-05-05 16:51 45.75247 15.37399 35968 ft 445 kts 321°
2026-05-05 16:51 45.80218 15.32218 35971 ft 444 kts 319°
2026-05-05 16:52 45.85106 15.26809 35964 ft 444 kts 319°
2026-05-05 16:52 45.89978 15.21368 35966 ft 444 kts 319°
2026-05-05 16:53 45.94861 15.15936 35967 ft 444 kts 319°
2026-05-05 16:53 45.99738 15.10521 35973 ft 445 kts 319°
2026-05-05 16:54 46.04641 15.05072 35971 ft 445 kts 319°
2026-05-05 16:54 46.09559 14.99594 35964 ft 445 kts 319°
2026-05-05 16:55 46.14463 14.94118 35967 ft 446 kts 319°
2026-05-05 16:55 46.19328 14.88671 35972 ft 446 kts 319°
2026-05-05 16:56 46.24233 14.83169 35987 ft 446 kts 319°
2026-05-05 16:56 46.29142 14.77648 35982 ft 446 kts 319°
2026-05-05 16:57 46.34039 14.72129 35986 ft 446 kts 319°
2026-05-05 16:57 46.38938 14.66594 35986 ft 446 kts 319°
2026-05-05 16:58 46.43844 14.61038 35966 ft 447 kts 319°
2026-05-05 16:58 46.48747 14.55471 35956 ft 448 kts 319°
2026-05-05 16:59 46.53631 14.49914 35953 ft 449 kts 319°
2026-05-05 16:59 46.58547 14.44309 35949 ft 449 kts 318°
2026-05-05 17:00 46.63470 14.38682 35944 ft 450 kts 319°
2026-05-05 17:00 46.68387 14.33047 35941 ft 450 kts 318°
2026-05-05 17:01 46.72482 14.28343 35942 ft 449 kts 319°
2026-05-05 17:01 46.74917 14.25546 35495 ft 443 kts 318°
2026-05-05 17:01 46.77323 14.22777 35069 ft 439 kts 318°
2026-05-05 17:02 46.79710 14.20027 34628 ft 435 kts 318°
2026-05-05 17:02 46.82068 14.17306 34197 ft 431 kts 318°
2026-05-05 17:02 46.84414 14.14595 33746 ft 427 kts 318°
2026-05-05 17:02 46.86740 14.11903 33239 ft 424 kts 317°
2026-05-05 17:03 46.89049 14.09228 32756 ft 421 kts 317°
2026-05-05 17:03 46.91338 14.06573 32281 ft 418 kts 317°
2026-05-05 17:03 46.93612 14.03934 31825 ft 416 kts 317°
2026-05-05 17:03 46.95872 14.01307 31405 ft 414 kts 317°
2026-05-05 17:04 46.98121 13.98691 30980 ft 412 kts 317°
2026-05-05 17:04 47.00357 13.96085 30559 ft 410 kts 317°
2026-05-05 17:04 47.02584 13.93489 30142 ft 407 kts 317°
2026-05-05 17:04 47.04772 13.90934 29682 ft 405 kts 317°
2026-05-05 17:05 47.06999 13.88332 29207 ft 403 kts 317°
2026-05-05 17:05 47.09159 13.85804 28755 ft 402 kts 317°
2026-05-05 17:05 47.11369 13.83216 28287 ft 400 kts 317°
2026-05-05 17:05 47.13535 13.80677 27817 ft 398 kts 317°
2026-05-05 17:06 47.15668 13.78173 27373 ft 397 kts 317°
2026-05-05 17:06 47.17819 13.75645 26932 ft 395 kts 317°
2026-05-05 17:06 47.19962 13.73125 26580 ft 392 kts 317°
2026-05-05 17:06 47.22082 13.70630 26214 ft 389 kts 317°
2026-05-05 17:07 47.24187 13.68152 25830 ft 385 kts 317°
2026-05-05 17:07 47.26261 13.65704 25490 ft 381 kts 317°
2026-05-05 17:07 47.28325 13.63262 25151 ft 379 kts 317°
2026-05-05 17:07 47.30377 13.60836 24801 ft 376 kts 317°
2026-05-05 17:08 47.32368 13.58481 24498 ft 373 kts 317°
2026-05-05 17:08 47.34393 13.56084 24119 ft 371 kts 317°
2026-05-05 17:08 47.36373 13.53735 23790 ft 368 kts 317°
2026-05-05 17:08 47.38352 13.51384 23478 ft 365 kts 317°
2026-05-05 17:09 47.40324 13.49040 23122 ft 363 kts 317°
2026-05-05 17:09 47.42286 13.46705 22741 ft 362 kts 317°
2026-05-05 17:09 47.44267 13.44345 22362 ft 360 kts 317°
2026-05-05 17:09 47.46188 13.42056 21995 ft 359 kts 317°
2026-05-05 17:10 47.48129 13.39741 21618 ft 357 kts 317°
2026-05-05 17:10 47.50056 13.37440 21277 ft 356 kts 317°
2026-05-05 17:10 47.51972 13.35132 20919 ft 354 kts 317°
2026-05-05 17:10 47.53878 13.32827 20545 ft 353 kts 317°
2026-05-05 17:11 47.55776 13.30529 20174 ft 351 kts 317°
2026-05-05 17:11 47.57666 13.28236 19860 ft 350 kts 317°
2026-05-05 17:11 47.59549 13.25951 19501 ft 349 kts 317°
2026-05-05 17:11 47.61425 13.23673 19175 ft 348 kts 317°
2026-05-05 17:12 47.63270 13.21431 18839 ft 346 kts 317°
2026-05-05 17:12 47.65133 13.19165 18497 ft 345 kts 317°
2026-05-05 17:12 47.66984 13.16911 18179 ft 344 kts 317°
2026-05-05 17:12 47.68825 13.14667 17827 ft 343 kts 317°
2026-05-05 17:13 47.70664 13.12424 17482 ft 342 kts 317°
2026-05-05 17:13 47.72492 13.10171 17118 ft 340 kts 314°
2026-05-05 17:13 47.74106 13.07634 16781 ft 335 kts 307°
2026-05-05 17:13 47.75584 13.04977 16473 ft 332 kts 306°
2026-05-05 17:14 47.77030 13.02314 16159 ft 329 kts 306°
2026-05-05 17:14 47.78465 12.99674 15858 ft 327 kts 306°
2026-05-05 17:14 47.79895 12.97061 15556 ft 325 kts 306°
2026-05-05 17:14 47.81322 12.94472 15245 ft 322 kts 306°
2026-05-05 17:15 47.82745 12.91902 14954 ft 320 kts 306°
2026-05-05 17:15 47.84143 12.89384 14658 ft 318 kts 306°
2026-05-05 17:15 47.85567 12.86825 14367 ft 316 kts 306°
2026-05-05 17:15 47.86968 12.84307 14079 ft 314 kts 306°
2026-05-05 17:16 47.88342 12.81836 13799 ft 313 kts 307°
2026-05-05 17:16 47.89727 12.79346 13509 ft 311 kts 307°
2026-05-05 17:16 47.91102 12.76870 13208 ft 309 kts 307°
2026-05-05 17:16 47.92023 12.75213 12984 ft 308 kts 307°
2026-05-05 17:17 47.93338 12.72843 12688 ft 306 kts 307°
2026-05-05 17:17 47.94693 12.70400 12375 ft 305 kts 307°
2026-05-05 17:17 47.96043 12.67963 12067 ft 304 kts 306°
2026-05-05 17:18 47.97388 12.65533 11764 ft 302 kts 306°
2026-05-05 17:18 47.98724 12.63117 11461 ft 301 kts 306°
2026-05-05 17:18 48.00056 12.60706 11165 ft 300 kts 306°
2026-05-05 17:18 48.01383 12.58302 10850 ft 299 kts 306°
2026-05-05 17:19 48.02686 12.55938 10573 ft 298 kts 306°
2026-05-05 17:19 48.04002 12.53550 10297 ft 298 kts 306°
2026-05-05 17:19 48.05321 12.51154 10032 ft 297 kts 306°
2026-05-05 17:19 48.06631 12.48779 9787 ft 295 kts 307°
2026-05-05 17:20 48.08228 12.46839 9514 ft 300 kts 329°
2026-05-05 17:20 48.10115 12.45519 9269 ft 298 kts 333°
2026-05-05 17:20 48.12025 12.44301 9021 ft 296 kts 334°
2026-05-05 17:20 48.13911 12.43113 8792 ft 292 kts 334°
2026-05-05 17:21 48.15758 12.41953 8594 ft 282 kts 334°
2026-05-05 17:21 48.17542 12.40837 8348 ft 273 kts 334°
2026-05-05 17:21 48.19275 12.39757 8105 ft 265 kts 334°
2026-05-05 17:22 48.22606 12.37690 7652 ft 254 kts 335°
2026-05-05 17:22 48.24205 12.36700 7441 ft 250 kts 334°
2026-05-05 17:22 48.25832 12.35698 7190 ft 249 kts 335°
2026-05-05 17:22 48.27415 12.34704 6954 ft 249 kts 334°
2026-05-05 17:23 48.29003 12.33718 6693 ft 243 kts 333°
2026-05-05 17:23 48.30330 12.32298 6422 ft 231 kts 305°
2026-05-05 17:23 48.31140 12.30270 6198 ft 222 kts 294°
2026-05-05 17:23 48.31856 12.28251 5953 ft 216 kts 295°
2026-05-05 17:24 48.32552 12.26276 5709 ft 212 kts 294°
2026-05-05 17:24 48.33225 12.24334 5444 ft 207 kts 295°
2026-05-05 17:24 48.33872 12.22419 5190 ft 203 kts 295°
2026-05-05 17:24 48.34495 12.20523 5043 ft 203 kts 294°
2026-05-05 17:25 48.35117 12.18602 4993 ft 205 kts 295°
2026-05-05 17:25 48.35524 12.17327 4993 ft 204 kts 294°
2026-05-05 17:25 48.36346 12.14761 4991 ft 203 kts 294°
2026-05-05 17:25 48.36828 12.12788 4971 ft 204 kts 275°
2026-05-05 17:26 48.36764 12.10709 4993 ft 194 kts 267°
2026-05-05 17:26 48.36663 12.08720 4985 ft 188 kts 265°
2026-05-05 17:26 48.36532 12.06741 4892 ft 191 kts 266°
2026-05-05 17:26 48.36382 12.04749 4646 ft 189 kts 265°
2026-05-05 17:27 48.36229 12.02793 4397 ft 187 kts 266°
2026-05-05 17:27 48.36078 12.00892 4138 ft 178 kts 265°
2026-05-05 17:27 48.35937 11.99124 3941 ft 162 kts 265°
2026-05-05 17:27 48.35809 11.97511 3707 ft 147 kts 265°
2026-05-05 17:28 48.35695 11.96058 3530 ft 137 kts 267°
2026-05-05 17:28 48.35583 11.94626 3379 ft 135 kts 267°
2026-05-05 17:28 48.35475 11.93265 3282 ft 128 kts 267°
2026-05-05 17:28 48.35383 11.91932 3146 ft 129 kts 268°
2026-05-05 17:29 48.35282 11.90591 2955 ft 129 kts 269°
2026-05-05 17:29 48.35184 11.89254 2780 ft 130 kts 269°
2026-05-05 17:29 48.35073 11.87895 2597 ft 132 kts 266°
2026-05-05 17:29 48.34971 11.86519 2327 ft 133 kts 266°
2026-05-05 17:30 48.34883 11.85118 2132 ft 134 kts 262°
2026-05-05 17:30 48.34730 11.83737 1953 ft 133 kts 265°
2026-05-05 17:30 48.34636 11.82371 1827 ft 133 kts 266°
2026-05-05 17:30 48.34512 11.80926 1622 ft 140 kts 264°
2026-05-05 17:31 48.34406 11.79506 1475 ft 131 kts 266°
2026-05-05 17:31 48.34325 11.78424 1484 ft 69 kts 263°
2026-05-05 17:31 48.34304 11.78120 1484 ft 19 kts 270°
2026-05-05 17:31 48.34315 11.78011 1484 ft 10 kts 279°
2026-05-05 17:32 48.34335 11.77915 1481 ft 9 kts 294°
2026-05-05 17:32 48.34358 11.77841 1480 ft 7 kts 295°
2026-05-05 17:32 48.34370 11.77803 1481 ft 3 kts 295°
2026-05-05 17:32 48.34379 11.77773 1478 ft 4 kts 292°
2026-05-05 17:33 48.34399 11.77701 1479 ft 12 kts 294°
2026-05-05 17:33 48.34442 11.77554 1481 ft 11 kts 294°
2026-05-05 17:33 48.34483 11.77466 1480 ft 11 kts 324°
2026-05-05 17:33 48.34564 11.77431 1474 ft 9 kts 353°
2026-05-05 17:34 48.34624 11.77459 1474 ft 10 kts 56°
2026-05-05 17:34 48.34637 11.77571 1484 ft 12 kts 83°
2026-05-05 17:34 48.34647 11.77690 1476 ft 11 kts 83°
2026-05-05 17:34 48.34655 11.77786 1479 ft 7 kts 83°
2026-05-05 17:35 48.34661 11.77853 1484 ft 6 kts 75°
2026-05-05 17:35 48.34684 11.77886 1479 ft 4 kts 23°
2026-05-05 17:35 48.34713 11.77887 1484 ft 4 kts 354°
2026-05-05 17:35 48.34741 11.77885 1484 ft 4 kts 358°
2026-05-05 17:36 48.34776 11.77881 1481 ft 7 kts 353°
2026-05-05 17:36 48.34851 11.77869 1484 ft 14 kts 354°
2026-05-05 17:36 48.34966 11.77849 1484 ft 18 kts 354°
2026-05-05 17:36 48.35098 11.77827 1481 ft 15 kts 353°
2026-05-05 17:37 48.35152 11.77830 1481 ft 9 kts 22°
2026-05-05 17:37 48.35179 11.77881 1484 ft 10 kts 72°
2026-05-05 17:37 48.35185 11.77927 1484 ft 7 kts 82°
2026-05-05 17:37 48.35187 11.77959 1479 ft 7 kts 82°
2026-05-05 17:38 48.35189 11.77982 1481 ft 7 kts 82°
2026-05-05 17:38 48.35194 11.78057 1484 ft 7 kts 84°
2026-05-05 17:38 48.35196 11.78078 1484 ft 7 kts 81°
2026-05-05 17:39 48.35197 11.78083 1484 ft 7 kts 80°
2026-05-05 17:39 48.35204 11.78136 1474 ft 7 kts 78°
2026-05-05 17:39 48.35218 11.78203 1479 ft 7 kts 76°
2026-05-05 17:40 48.35224 11.78273 1476 ft 7 kts 84°
2026-05-05 17:40 48.35228 11.78331 1472 ft 1 kts 84°
2026-05-05 17:40 48.35229 11.78334 1472 ft 0 kts 84°